Погода в Шаами-Юрте

Россия / Чеченская Республика     43°13′38″N   45°23′14″E
темп.,
°C
ветер,
м/с
пор.,
м/с
влажн.,
%
обл.,
%
осадки,
мм/ч
давл.,
гПа
погр.,
м
8 марта, пн
пн800:00−1в234735 0.0 1022118
03:00−1всв015518 0.0 102263
06:00−1ссз12570 0.0 102254
09:00+2ссз12460 0.0 1020515
12:00+4ссв334490 0.0 10181021
15:00+5с224295 0.0 10161232
18:00+4сз2353100 0.0 1017757
21:00+3ююв1278100 0.0 1019402
9 марта, вт
вт900:00+2вюв1182100 0.0 1018163
03:00+1всв018499 0.0 101839
06:00+1з018782 0.0 101722
09:00+4сз116476 0.0 1017488
12:00+7всв224512 0.0 10161334
15:00+8в114039 0.0 10151579
18:00+7юв114589 0.0 1017232
21:00+5юз115494 0.0 102042
10 марта, ср
ср1000:00+2с369298 0.2 1021348
03:00+2сз239597 1.9 1022211
06:00+1зсз1195100 0.7 1023118
09:00+2зюз1193100 0.9 1024178
12:00+3с347791 0.3 1022567
15:00+6ссв234184 0.4 10211469
18:00+5св2348100 0.0 1021402
21:00+4всв3554100 0.0 1022616
11 марта, чт
чт1100:00+1всв5869100 0.0 1020621
03:000св5877100 0.1 1019698
06:00−1св5894100 1.3 1019516
09:00−1св5993100 3.6 1018639
12:00−1св6994100 2.6 1018737
15:00−2св6992100 5.2 1018748
18:00−5св5894100 1.4 1021618
21:00−6св4695100 2.5 1024471
12 марта, пт
пт1200:00−6св3595100 1.3 1024370
03:00−6св2495100 2.3 1025320
06:00−6св1295100 0.9 1028197
09:00−5всв2391100 1.6 1029403
12:00−4всв4586100 0.3 1027641
15:00−4всв4583100 0.4 1027779
18:00−6всв249097 0.1 1029123
21:00−9всв129455 0.1 103156